Total_Precipitation_Accumulation
3.39 3.43 3.44 3.38 3.13 3.41 3.80 4.06 3.65 3.96 4.00 3.58 3.25 3.05 3.07 3.04 3.23 3.49 3.50 3.65 3.54 3.51 3.87 4.10 3.98 3.74 3.56 3.21 2.73 2.43 2.29 2.07 1.82 1.52 1.32 1.33 1.33 1.26 1.21 1.22 1.18 1.06 0.97
3.95 3.91 3.74 3.65 3.27 3.22 3.52 3.73 3.73 4.18 4.01 3.77 3.15 2.98 2.94 3.10 3.32 3.41 3.52 4.04 3.97 3.67 3.72 4.13 4.48 4.48 4.23 3.96 3.49 3.09 2.78 2.54 2.35 1.94 1.59 1.48 1.43 1.34 1.28 1.33 1.45 1.31 1.07
4.44 4.23 3.98 3.58 3.33 3.33 3.57 3.55 3.60 3.73 3.54 3.43 3.17 3.20 3.14 3.16 3.20 3.32 3.52 3.83 3.70 3.41 3.45 3.70 4.25 4.69 4.94 4.93 4.60 4.25 3.62 3.05 2.75 2.32 1.89 1.62 1.47 1.40 1.33 1.36 1.43 1.40 1.26
4.16 4.20 3.82 3.36 3.37 3.36 3.46 3.63 3.50 3.58 3.52 3.49 3.42 3.17 3.18 3.19 2.91 2.96 3.13 3.25 3.49 3.12 3.23 3.41 3.64 4.01 4.77 5.52 5.92 5.84 5.08 4.02 3.22 2.79 2.42 2.03 1.74 1.53 1.36 1.36 1.48 1.44 1.24
3.90 4.12 3.77 3.53 3.43 3.40 3.31 3.08 3.56 3.71 3.67 3.63 3.26 3.15 2.85 2.63 2.48 2.34 2.44 2.42 2.71 2.92 3.12 3.10 3.30 3.54 4.32 5.50 6.57 6.94 6.50 5.28 4.27 3.63 3.23 2.78 2.39 2.02 1.66 1.49 1.43 1.35 1.22
3.54 3.78 3.47 3.36 3.46 3.62 3.47 3.50 3.85 3.86 3.50 3.53 3.10 3.00 2.84 2.44 2.32 2.22 2.12 2.17 2.21 2.23 2.63 3.06 3.55 3.23 3.56 4.50 5.59 6.43 6.96 6.53 5.44 4.57 3.90 3.44 3.05 2.63 2.12 1.84 1.70 1.61 1.52
3.15 3.52 3.26 3.61 3.42 3.39 3.24 3.20 3.36 3.40 3.05 3.22 3.58 3.15 2.60 2.29 2.18 2.01 2.01 2.11 2.03 2.16 2.55 3.06 3.46 3.57 3.29 3.21 3.73 4.48 5.69 6.36 5.93 5.10 4.41 3.92 3.52 3.14 2.59 2.26 2.08 1.90 1.79
3.21 3.00 3.24 3.07 3.03 3.17 2.96 2.89 3.10 3.10 2.79 3.06 3.35 3.44 2.89 2.64 2.22 1.68 1.87 2.02 2.09 2.34 2.35 2.48 2.99 3.44 3.35 3.60 2.98 2.85 3.90 5.07 5.78 5.62 4.90 4.26 3.76 3.32 2.90 2.63 2.31 1.96 1.77
3.36 3.20 3.09 2.91 2.85 2.68 2.85 2.88 2.91 3.03 3.01 2.90 2.95 3.28 2.99 2.68 2.27 1.80 1.74 1.97 2.29 2.55 2.48 2.51 2.52 2.85 3.03 3.41 3.29 2.92 2.82 3.35 4.43 5.50 5.50 4.76 3.90 3.23 2.84 2.81 2.70 2.35 2.05
3.57 3.25 3.05 2.81 2.65 2.50 2.80 2.49 2.60 2.92 3.13 2.82 2.75 2.70 2.67 2.79 2.69 2.32 1.88 1.72 1.98 2.19 2.24 2.14 2.24 2.49 2.73 3.06 3.18 3.11 2.78 2.69 3.27 4.36 4.98 4.92 4.33 3.61 3.13 3.14 3.44 3.40 2.92
3.33 2.98 2.85 2.76 2.57 2.41 2.47 2.48 2.78 2.79 2.78 2.71 2.78 2.72 2.82 2.98 2.78 2.63 2.31 2.16 2.22 2.09 1.97 1.92 2.00 2.21 2.53 2.87 3.16 3.08 3.29 2.98 2.79 3.04 3.56 3.95 4.12 3.91 3.59 3.72 4.33 4.67 4.36
2.97 2.72 2.58 2.66 2.50 2.41 2.47 2.48 2.60 2.66 2.81 2.88 2.86 2.83 2.89 2.88 2.91 3.08 2.72 2.46 2.40 2.08 1.97 1.96 2.08 2.24 2.45 2.65 2.59 2.80 3.00 3.11 2.92 2.80 2.90 3.10 3.37 3.63 3.79 4.06 4.56 5.06 5.32
2.43 2.41 2.46 2.56 2.41 2.41 2.50 2.62 2.67 2.65 2.77 2.83 2.76 2.85 2.93 2.87 2.97 3.11 3.03 2.64 2.38 2.11 2.17 2.14 2.11 2.35 2.40 2.69 2.90 2.81 2.55 2.64 2.58 2.51 2.50 2.53 2.65 2.92 3.23 3.54 4.10 4.68 5.15
2.07 2.14 2.35 2.40 2.34 2.29 2.31 2.73 2.71 2.73 2.84 2.79 2.65 2.98 3.03 2.81 2.99 3.13 3.25 3.29 2.92 2.68 2.72 2.66 2.36 2.34 2.52 2.66 2.89 2.73 2.48 2.47 2.17 2.08 2.04 2.05 2.13 2.27 2.47 2.71 3.04 3.40 3.72
2.11 2.15 2.22 2.43 2.53 2.62 2.67 2.84 2.77 2.77 2.97 2.93 2.89 3.09 3.05 2.86 2.88 2.98 3.22 3.49 3.56 3.31 3.16 2.97 2.61 2.48 2.52 2.53 2.64 2.51 2.58 2.47 2.02 1.77 1.71 1.70 1.67 1.69 1.79 1.93 2.15 2.44 2.64
2.22 2.28 2.29 2.37 2.52 2.62 2.67 2.82 2.82 2.87 3.04 3.05 3.13 3.20 3.06 2.81 2.96 2.97 3.09 3.43 3.73 3.79 3.45 2.94 2.69 2.58 2.63 2.44 2.47 2.24 2.27 2.16 1.82 1.66 1.56 1.52 1.45 1.40 1.41 1.48 1.62 1.88 2.07
2.23 2.32 2.34 2.33 2.30 2.41 2.59 2.82 2.76 2.91 3.03 3.06 3.04 2.96 2.88 2.93 3.10 3.01 3.12 3.29 3.55 3.80 3.49 3.06 2.89 2.84 2.89 2.79 2.63 2.28 2.00 1.87 1.73 1.77 1.61 1.45 1.37 1.33 1.37 1.44 1.51 1.62 1.79
2.28 2.30 2.31 2.31 2.23 2.32 2.57 2.72 2.81 3.05 3.17 3.04 2.96 2.95 2.81 2.94 3.04 3.01 3.07 3.06 3.17 3.51 3.40 3.12 3.03 3.08 2.99 2.84 2.75 2.57 2.17 1.96 1.96 2.02 1.77 1.60 1.49 1.43 1.38 1.38 1.47 1.55 1.66
2.30 2.27 2.31 2.33 2.40 2.55 2.73 2.84 2.92 3.07 3.03 2.89 2.90 2.83 2.70 2.80 2.72 2.79 2.84 2.85 2.85 2.99 3.19 3.08 2.94 3.02 2.96 2.83 2.79 2.66 2.55 2.61 2.34 2.13 1.94 1.74 1.60 1.52 1.48 1.40 1.44 1.52 1.62
2.08 2.14 2.30 2.46 2.58 2.73 2.83 2.87 2.89 2.85 2.82 2.68 2.57 2.49 2.51 2.64 2.74 2.74 2.65 2.63 2.71 2.85 2.97 3.01 2.96 3.05 3.07 3.10 3.02 2.87 2.86 2.80 2.60 2.11 2.00 1.76 1.62 1.49 1.42 1.34 1.37 1.52 1.65
1.99 2.23 2.39 2.46 2.50 2.51 2.57 2.77 2.73 2.59 2.56 2.43 2.31 2.15 2.18 2.52 2.67 2.65 2.44 2.55 2.63 2.69 2.77 2.91 2.95 3.04 3.13 3.37 3.20 2.93 2.81 2.87 2.71 2.43 2.21 1.94 1.77 1.65 1.57 1.51 1.46 1.46 1.50
2.17 2.36 2.36 2.34 2.29 1.93 2.04 2.21 2.22 2.21 2.24 2.21 2.08 2.02 2.01 2.08 2.11 2.17 2.19 2.22 2.28 2.34 2.55 2.87 2.95 2.93 2.90 3.02 3.16 3.11 3.03 2.94 2.83 2.69 2.70 2.56 2.19 2.11 1.98 1.80 1.68 1.43 1.27
2.42 2.50 2.44 2.38 2.20 2.06 1.95 1.84 1.83 1.88 2.02 2.03 2.06 2.12 1.82 1.63 1.78 1.80 1.96 1.95 1.89 2.01 2.16 2.43 2.61 2.63 2.74 2.76 3.07 3.12 3.19 3.19 3.10 3.03 3.01 3.02 2.66 2.33 2.05 1.94 1.85 1.49 1.32
2.66 2.67 2.62 2.51 2.38 2.23 2.13 1.93 1.91 1.83 1.90 1.93 1.95 1.99 1.93 1.80 1.76 1.87 1.98 1.92 1.76 1.72 1.72 1.69 1.89 2.18 2.46 2.75 2.85 2.94 3.08 3.15 3.14 2.97 2.87 2.91 2.71 2.55 2.20 1.90 1.77 1.57 1.39
2.80 2.74 2.82 2.73 2.58 2.52 2.34 1.99 1.82 1.72 1.86 1.89 1.89 1.85 1.80 1.72 1.80 1.69 1.64 1.65 1.66 1.63 1.48 1.49 1.56 1.78 2.02 2.13 2.36 2.62 2.85 2.86 2.79 2.59 2.40 2.47 2.48 2.49 2.46 2.22 1.83 1.71 1.49
2.92 2.92 2.84 2.80 2.67 2.61 2.52 2.01 1.75 1.65 1.82 1.85 1.90 1.83 1.70 1.55 1.56 1.47 1.41 1.54 1.54 1.55 1.61 1.57 1.46 1.47 1.55 1.72 1.84 1.92 2.24 2.48 2.38 2.31 2.07 1.99 1.95 2.10 2.27 2.06 1.80 1.72 1.67